Weather History for Reading, PA

Change the Weather History Date:

Tuesday, November 13, 2012

  Actual Average Record
Temperature  
Mean Temperature 51 °F 45 °F  
Max Temperature 63 °F 55 °F 74 °F (1902)
Min Temperature 39 °F 36 °F 21 °F (1976)
Degree Days  
Heating Degree Days 14 20  
Month to date heating degree days 266 234  
Since 1 July heating degree days 603 672  
Cooling Degree Days 0 0  
Month to date cooling degree days 0 0  
Year to date cooling degree days 1281 896  
Moisture  
Dew Point 37 °F    
Average Humidity 70    
Maximum Humidity 93    
Minimum Humidity 46    
Precipitation  
Precipitation 0.55 in 0.10 in 1.84 in (1975)
Month to date precipitation 0.55 1.41  
Year to date precipitation 35.57 37.93  
Sea Level Pressure  
Sea Level Pressure 30.33 in    
Wind  
Wind Speed 10 mph (NW)    
Max Wind Speed 33 mph    
Max Gust Speed 41 mph    
Visibility 9 miles    
Events Rain    
T = Trace of Precipitation, MM = Missing Value Source: NWS Daily Summary

Daily Weather History Graph

Daily Weather History Graph

Search for Another Location

Airport:

Trip Planner

Search our weather history database for the weather conditions in past years. The results will help you decide how hot, cold, wet, or windy it might be!

Date:

Astronomy

Nov. 13, 2012 Rise Set
Actual Time 6:48 AM EST 4:47 PM EST
Civil Twilight 6:18 AM EST 5:16 PM EST
Nautical Twilight 5:46 AM EST 5:49 PM EST
Astronomical Twilight 5:13 AM EST 6:21 PM EST
Moon 6:23 AM EST (11/13) 4:38 PM EST (11/13)
Length of Visible Light 10h 57m
Length of Day
9h 59m
Waning Crescent, 0% of the Moon is Illuminated
Nov 13
Waning Crescent
Nov 13
New
Nov 20
First Quarter
Nov 28
Full
Dec 6
Last Quarter

Hourly Weather History & Observations

Time (EST) Temp. Windchill Dew Point Humidity Pressure Visibility Wind Dir Wind Speed Gust Speed Precip Events Conditions
12:45 AM 60.8 °F - 57.2 °F 88% 30.13 in 5.0 mi WNW 21.9 mph 36.8 mph 0.06 in Rain Heavy Rain
12:52 AM 51.8 °F - 50.0 °F 94% 30.15 in 3.0 mi NW 28.8 mph 41.4 mph 0.14 in Rain Heavy Rain
12:53 AM 52.0 °F - 50.0 °F 93% 30.16 in 3.0 mi NW 26.5 mph 41.4 mph 0.15 in Rain Heavy Rain
1:00 AM 51.8 °F - 48.2 °F 88% 30.16 in 4.0 mi WNW 21.9 mph 35.7 mph 0.03 in Rain Heavy Rain
1:15 AM 51.8 °F - 48.2 °F 88% 30.18 in 10.0 mi WNW 15.0 mph 23.0 mph 0.04 in Rain Light Rain
1:54 AM 50.0 °F - 46.0 °F 86% 30.22 in 10.0 mi WNW 11.5 mph - 0.05 in   Overcast
2:54 AM 46.9 °F - 44.1 °F 90% 30.24 in 10.0 mi WNW 12.7 mph - 0.01 in Rain Light Rain
3:54 AM 46.0 °F 41.9 °F 45.0 °F 96% 30.25 in 8.0 mi NW 8.1 mph - 0.03 in Rain Light Rain
4:02 AM 46.4 °F 42.4 °F 44.6 °F 93% 30.24 in 10.0 mi WNW 8.1 mph - 0.00 in Rain Light Rain
4:52 AM 46.4 °F 41.1 °F 42.8 °F 87% 30.26 in 10.0 mi WNW 11.5 mph - 0.03 in Rain Light Rain
4:54 AM 46.0 °F 40.6 °F 43.0 °F 89% 30.27 in 10.0 mi WNW 11.5 mph - 0.03 in Rain Light Rain
5:54 AM 44.1 °F 37.4 °F 41.0 °F 89% 30.30 in 7.0 mi NW 13.8 mph 21.9 mph 0.03 in Rain Rain
7:01 AM 41.0 °F 35.2 °F 39.2 °F 93% 30.32 in 6.0 mi NNW 9.2 mph - N/A Rain Light Rain
7:54 AM 39.9 °F 36.7 °F 37.9 °F 93% 30.36 in 6.0 mi North 4.6 mph - N/A Rain Light Rain
8:14 AM 39.2 °F 35.0 °F 37.4 °F 93% 30.35 in 10.0 mi WNW 5.8 mph - 0.02 in Rain Light Rain
8:54 AM 41.0 °F 35.8 °F 37.0 °F 86% 30.37 in 10.0 mi NW 8.1 mph - 0.02 in Rain Light Rain
9:54 AM 43.0 °F 36.4 °F 37.9 °F 82% 30.38 in 10.0 mi NW 12.7 mph - 0.00 in   Mostly Cloudy
10:54 AM 44.1 °F 36.8 °F 36.0 °F 73% 30.38 in 10.0 mi WNW 16.1 mph 19.6 mph N/A   Mostly Cloudy
11:54 AM 43.0 °F 36.0 °F 32.0 °F 65% 30.36 in 10.0 mi NW 13.8 mph - N/A   Mostly Cloudy
12:01 PM 44.6 °F 38.4 °F 32.0 °F 61% 30.34 in 10.0 mi NW 12.7 mph - N/A   Clear
12:54 PM 46.9 °F - 30.9 °F 54% 30.35 in 10.0 mi North 11.5 mph 20.7 mph N/A   Clear
1:54 PM 48.0 °F - 28.9 °F 48% 30.35 in 10.0 mi NW 11.5 mph - N/A   Clear
2:54 PM 48.0 °F - 30.0 °F 50% 30.35 in 10.0 mi NNW 11.5 mph - N/A   Clear
3:54 PM 46.9 °F - 30.9 °F 54% 30.36 in 10.0 mi NNW 9.2 mph - N/A   Partly Cloudy
4:54 PM 43.0 °F 38.2 °F 30.0 °F 60% 30.38 in 10.0 mi NW 8.1 mph - N/A   Mostly Cloudy
5:54 PM 42.1 °F 37.7 °F 28.9 °F 60% 30.41 in 10.0 mi NNW 6.9 mph - N/A   Partly Cloudy
6:54 PM 43.0 °F 37.7 °F 28.9 °F 58% 30.43 in 10.0 mi NNW 9.2 mph - N/A   Overcast
7:54 PM 41.0 °F 36.4 °F 27.0 °F 57% 30.46 in 10.0 mi North 6.9 mph - N/A   Mostly Cloudy
8:54 PM 42.1 °F 40.2 °F 27.0 °F 55% 30.48 in 10.0 mi North 3.5 mph - N/A   Overcast
9:54 PM 41.0 °F 37.1 °F 30.0 °F 65% 30.48 in 10.0 mi NNE 5.8 mph - N/A   Overcast
10:54 PM 39.9 °F 35.1 °F 28.0 °F 63% 30.49 in 10.0 mi NNE 6.9 mph - N/A   Overcast
11:54 PM 39.9 °F 35.8 °F 28.0 °F 63% 30.49 in 10.0 mi NE 5.8 mph - N/A   Overcast